Date,TemperatureHighF,TemperatureAvgF,TemperatureLowF,DewpointHighF,DewpointAvgF,DewpointLowF,HumidityHigh,HumidityAvg,HumidityLow,PressureMaxIn,PressureMinIn,WindSpeedMaxMPH,WindSpeedAvgMPH,GustSpeedMaxMPH,PrecipitationSumIn
2014-1-1,61,52,44,57,50,41,97,92,84,30.36,30.06,6,1,6,0.04
2014-1-2,59,52,38,58,45,23,98,80,53,30.33,29.88,18,3,18,0.58
2014-1-3,43,35,29,23,17,13,59,48,38,30.44,30.30,15,4,15,0.04
2014-1-4,57,44,31,44,32,17,78,61,54,30.33,30.06,10,2,10,24.94
2014-1-5,65,56,47,60,50,40,90,81,74,30.06,29.85,13,3,13,0.04
2014-1-6,48,34,25,41,15,0,75,47,31,30.56,30.00,20,5,20,0.04
2014-1-7,32,26,20,7,3,-5,44,37,23,30.68,30.50,13,3,13,0.04
2014-1-8,37,25,21,15,8,5,53,48,40,30.56,30.47,9,2,9,0.00
2014-1-10,67,64,39,67,63,18,98,97,41,30.47,29.91,14,2,14,25.23
2014-1-11,70,64,47,69,55,34,98,77,39,30.09,29.79,15,3,15,0.95
2014-1-12,60,49,38,40,37,31,80,64,44,30.24,30.09,5,1,6,0.00
2014-1-13,60,55,45,59,52,37,98,92,75,30.15,29.85,10,1,10,0.50
2014-1-14,60,54,43,58,45,36,98,74,43,30.09,29.88,10,2,10,0.00
2014-1-15,52,46,39,37,29,18,82,55,32,30.21,30.03,14,2,14,0.00
2014-1-16,49,40,30,38,23,18,69,52,40,30.24,30.06,11,2,11,0.00
2014-1-17,58,50,38,43,32,16,82,53,30,30.24,30.06,13,2,13,0.00
2014-1-18,50,41,29,36,24,16,68,50,37,30.33,30.09,15,1,15,0.00
2014-1-19,60,51,41,48,39,32,89,66,38,30.21,30.06,12,2,12,0.17
2014-1-20,60,46,35,48,37,28,92,70,48,30.15,29.97,8,1,8,0.00
2014-1-21,57,50,36,55,33,15,98,56,28,30.18,29.88,18,4,18,0.00
2014-1-22,47,37,29,26,17,10,65,44,30,30.30,30.12,10,2,10,0.00
2014-1-23,53,40,33,27,24,19,73,55,32,30.41,30.18,11,2,11,0.00
2014-1-24,40,34,32,16,9,-5,41,34,20,30.62,30.33,15,5,16,0.00
2014-1-25,55,46,36,38,32,14,76,59,41,30.36,30.00,10,2,10,0.00
2014-1-26,56,45,36,42,36,30,85,70,49,30.06,29.88,10,1,10,0.00
2014-1-27,64,57,47,60,50,23,98,80,39,30.09,29.85,13,2,13,26.85
2014-1-28,47,33,26,26,18,7,83,57,31,30.33,30.06,57,5,57,0.04
2014-1-29,33,27,23,16,10,4,65,50,31,30.44,30.27,13,4,13,0.00
2014-1-30,45,26,18,24,13,7,71,57,41,30.36,30.15,8,1,11,0.21
2014-1-31,54,40,29,42,32,21,86,72,55,30.21,30.06,6,0,6,0.00
2014-2-1,67,52,38,59,49,34,98,88,73,30.09,30.03,9,1,9,0.00
2014-2-2,68,63,59,67,62,58,98,97,92,30.09,29.94,13,3,13,0.42
2014-2-3,66,53,45,65,51,43,98,92,77,30.15,29.94,13,4,13,0.04
2014-2-4,69,58,45,69,57,44,98,97,93,30.12,29.88,24,3,24,0.08
2014-2-5,69,55,40,69,48,27,98,80,52,30.30,29.88,18,4,18,0.29
2014-2-6,40,36,33,31,26,22,84,67,55,30.39,30.24,15,4,15,0.00
2014-2-7,53,42,31,39,32,27,86,68,49,30.36,30.18,13,3,13,0.00
2014-2-8,61,50,41,45,40,36,84,70,48,30.27,30.12,8,1,8,0.04
2014-2-9,64,51,38,50,44,34,87,76,58,30.24,30.06,7,1,7,0.00
2014-2-10,63,54,46,60,51,43,98,92,85,30.15,30.03,8,1,8,0.00
2014-2-11,50,46,43,49,45,42,98,96,94,30.15,29.97,13,4,13,0.16
2014-2-12,47,45,43,47,44,41,98,97,92,30.03,29.76,15,4,15,0.79
2014-2-13,52,44,39,41,36,34,95,76,49,30.06,29.88,15,2,15,0.54
2014-2-14,57,48,35,53,40,30,90,75,53,30.03,29.82,23,2,23,0.54
2014-2-15,56,48,40,45,36,32,83,63,39,30.18,29.91,10,2,11,0.54
2014-2-16,62,50,36,45,38,30,85,67,40,30.24,30.12,8,1,8,0.54
2014-2-17,69,59,46,62,55,42,97,87,71,30.18,30.09,13,2,16,0.54
2014-2-18,71,64,61,67,63,59,98,94,81,30.24,30.06,12,2,12,0.54
2014-2-19,72,67,62,68,65,60,98,94,82,30.15,30.00,13,2,13,0.54
2014-2-20,77,70,66,70,68,65,98,92,77,30.03,29.88,20,4,20,1.28
2014-2-21,72,58,45,71,41,30,98,57,29,30.12,29.82,24,4,24,2.61
2014-2-22,67,54,40,44,37,31,77,56,31,30.18,30.03,12,1,12,0.54
2014-2-23,64,60,53,64,58,43,98,91,65,30.06,29.94,6,0,6,0.54
2014-2-24,69,62,57,62,58,54,98,86,60,30.15,29.97,10,1,10,0.54
2014-2-25,71,62,52,61,55,50,94,80,49,30.09,29.91,7,1,7,3.03
2014-2-26,63,52,41,62,46,26,97,82,54,30.03,29.85,17,3,17,3.90
2014-2-27,52,42,34,27,22,17,69,47,28,30.09,29.97,10,3,11,0.54
2014-2-28,58,47,30,44,32,0,74,57,37,30.15,30.00,10,2,10,0.54
2014-3-1,70,60,51,57,51,44,91,74,60,30.21,30.06,115,2,115,0.54
2014-3-2,70,62,52,63,57,0,98,83,62,30.21,29.94,8,2,8,3.90
2014-3-3,64,51,35,64,45,26,98,80,62,30.21,29.88,17,5,17,0.54
2014-3-4,37,35,34,30,28,26,77,74,71,30.21,30.12,15,4,15,0.00
2014-3-9,70,63,38,55,54,30,84,73,49,30.21,30.09,7,1,7,4.69
2014-3-10,73,62,50,59,53,46,88,74,47,30.18,29.94,13,2,13,0.00
2014-3-11,68,63,59,65,61,56,98,92,87,29.97,29.71,8,1,8,0.04
2014-3-12,67,62,50,63,54,31,98,78,47,30.15,29.68,12,3,14,0.00
2014-3-13,62,50,39,38,31,28,73,49,34,30.30,30.15,15,3,15,0.00
2014-3-14,66,54,37,47,41,30,79,62,44,30.33,30.15,14,2,14,0.00
2014-3-15,65,61,55,64,58,47,98,90,75,30.15,29.88,9,1,9,0.08
2014-3-16,70,66,62,69,65,61,98,98,95,29.88,29.59,30,3,30,1.91
2014-3-17,62,55,49,61,51,42,98,88,74,29.85,29.62,12,2,12,0.09
2014-3-18,58,51,46,48,44,42,85,77,66,30.03,29.82,13,2,13,0.00
2014-3-19,67,57,46,56,50,42,94,78,61,30.15,30.00,12,2,12,0.00
2014-3-20,72,62,52,54,49,46,91,67,40,30.15,30.00,11,2,11,0.00
2014-3-21,72,61,45,55,46,39,81,60,36,30.15,30.00,12,2,12,0.00
2014-3-22,81,65,55,64,56,50,93,76,44,30.09,29.97,17,2,17,0.00
2014-3-23,72,64,54,70,59,45,98,84,64,30.15,29.94,13,3,13,7.10
2014-3-24,68,59,51,48,44,38,81,60,41,30.18,29.94,13,2,13,0.00
2014-3-25,64,55,47,48,31,-4,82,43,11,30.30,29.97,18,3,18,0.00
2014-3-26,60,48,33,34,26,20,68,42,24,30.41,30.21,14,2,14,0.00
2014-3-27,75,61,45,63,48,34,94,65,46,30.27,30.03,19,3,19,0.00
2014-3-28,66,62,59,65,62,59,98,97,93,30.06,29.88,172,2,172,2.03
2014-3-29,71,64,58,66,54,40,98,73,42,30.18,29.82,15,2,15,0.58
2014-3-30,68,58,47,44,40,38,73,53,35,30.30,30.12,7,2,8,9.71
2014-3-31,70,58,42,50,44,36,84,61,37,30.21,30.06,10,2,13,0.00
2014-4-1,70,59,48,61,51,41,89,75,63,30.18,30.09,10,1,10,0.00
2014-4-2,79,69,59,69,63,55,98,83,60,30.15,30.06,12,2,12,0.00
2014-4-3,80,73,66,71,65,63,97,79,59,30.09,29.94,18,3,18,0.00
2014-4-4,77,70,66,72,67,61,97,90,69,30.09,29.88,15,2,15,0.29
2014-4-5,68,64,60,66,56,49,95,76,57,30.09,29.94,11,2,11,0.17
2014-4-6,72,65,58,72,63,56,98,95,90,29.97,29.71,16,3,16,0.16
2014-4-7,78,72,61,73,65,48,98,82,53,29.85,29.59,17,2,18,10.95
2014-4-8,68,60,54,52,48,44,82,65,46,29.97,29.82,10,1,10,0.09
2014-4-9,69,61,52,51,46,40,83,61,35,30.21,29.97,11,2,13,0.00
2014-4-10,72,61,48,57,47,41,78,62,36,30.27,30.18,12,1,12,11.04
2014-4-11,76,65,52,61,54,46,83,69,51,30.30,30.12,9,1,9,0.00
2014-4-12,78,63,58,67,56,54,95,79,47,30.21,30.06,10,1,10,11.04
2014-4-13,80,70,60,68,60,54,95,73,49,30.12,29.94,14,2,229,0.00
2014-4-14,79,70,67,69,66,62,97,88,69,29.97,29.71,22,2,22,1.24
2014-4-15,67,55,47,66,45,32,98,72,41,30.18,29.76,17,3,17,12.66
2014-4-16,66,53,42,45,37,29,74,56,41,30.27,30.09,11,2,11,0.00
2014-4-17,71,61,48,59,52,40,89,74,56,30.27,30.12,172,2,172,0.04
2014-4-18,62,60,58,60,58,54,98,92,83,30.18,30.00,18,5,18,0.37
2014-4-19,75,65,56,56,52,48,93,67,39,30.15,30.00,15,3,15,0.00
2014-4-20,70,61,54,55,52,49,84,74,56,30.21,30.09,14,1,14,13.07
2014-4-21,73,65,52,61,57,48,86,77,64,30.18,30.00,10,1,10,0.00
2014-4-22,78,66,56,66,61,53,92,83,61,30.03,29.82,9,1,9,13.07
2014-4-23,82,71,61,68,64,58,96,79,52,30.00,29.88,10,1,10,0.00
2014-4-24,79,70,63,71,64,60,97,83,62,30.00,29.88,13,1,13,0.00
2014-4-25,85,75,70,71,69,66,96,82,60,29.97,29.88,8,1,8,0.00
2014-4-26,86,76,68,76,70,65,95,81,65,30.03,29.88,10,1,10,0.00
2014-4-27,85,76,69,75,70,67,98,82,58,29.97,29.82,17,2,17,0.00
2014-4-28,86,79,74,76,74,0,94,85,72,29.85,29.68,21,3,21,0.00
2014-4-29,80,71,65,80,69,63,100,92,76,29.80,29.68,18,2,225,4.49
2014-5-4,84,79,70,64,57,50,79,48,34,30.15,30.03,8,1,8,0.00
2014-5-5,84,74,62,65,57,52,83,59,33,30.12,29.94,10,1,10,0.00
2014-5-6,81,71,59,66,58,52,84,65,40,30.06,29.94,10,1,10,0.00
2014-5-7,82,73,62,71,63,56,88,72,55,30.12,29.97,12,1,12,0.00
2014-5-8,68,66,66,62,61,61,86,84,82,30.09,30.06,0,0,0,0.00
2014-5-9,79,74,68,75,71,66,98,90,78,30.09,30.00,15,2,15,1.37
2014-5-10,82,74,68,77,72,67,98,93,81,30.06,29.97,13,1,13,1.12
2014-5-11,85,78,72,78,73,70,98,85,64,30.09,30.00,12,1,12,0.00
2014-5-12,84,78,34,76,72,0,97,82,64,30.15,30.03,9,1,9,0.00
2014-5-13,84,77,70,75,70,66,98,80,63,30.09,30.00,8,1,8,0.00
2014-5-14,79,71,65,75,69,61,97,92,85,30.09,29.88,8,1,8,0.46
2014-5-15,70,62,58,61,51,44,88,68,41,30.18,30.00,13,2,13,2.91
2014-5-16,77,61,52,59,49,45,79,68,42,30.21,30.06,8,0,8,0.00
2014-5-17,80,72,64,64,58,54,85,64,43,30.21,30.12,11,1,11,0.00
2014-5-18,82,72,60,68,59,51,83,66,34,30.24,30.12,11,1,11,0.00
2014-5-19,84,72,60,68,60,54,94,68,39,30.21,30.12,10,1,10,0.00
2014-5-20,84,74,60,71,65,57,92,76,54,30.24,30.12,10,1,10,0.00
2014-5-21,85,75,65,73,65,58,95,74,41,30.21,30.12,115,1,115,2.91
2014-5-22,88,76,63,72,66,60,94,74,46,30.21,30.06,8,1,8,0.00
2014-5-23,90,78,66,71,67,61,90,71,39,30.18,30.03,10,1,10,0.00
2014-5-24,88,78,69,73,68,61,90,72,42,30.15,30.00,8,1,8,0.00
2014-5-25,89,79,68,74,69,60,89,72,42,30.09,30.03,9,1,9,0.00
2014-5-26,87,80,66,74,71,61,87,74,58,30.18,30.06,8,1,8,0.00
2014-5-27,86,76,72,75,71,70,93,85,62,30.12,30.00,8,0,10,0.00
2014-5-28,84,77,71,76,72,69,97,85,66,30.03,29.94,13,2,13,1.58
2014-5-29,77,73,70,73,71,69,98,93,82,30.00,29.91,11,1,11,1.12
2014-5-30,84,74,70,75,71,68,96,90,66,30.06,29.91,18,2,18,2.95
2014-5-31,82,75,71,77,72,70,98,90,72,30.06,29.94,9,1,9,0.04
2014-6-1,86,78,71,76,72,70,97,84,63,30.12,29.97,10,2,10,2.70
2014-6-2,82,75,72,75,72,70,98,89,75,30.12,30.03,11,3,15,3.73
2014-6-3,82,76,72,76,73,0,98,92,78,30.12,30.00,8,1,8,2.70
2014-6-4,86,78,69,75,71,67,94,80,62,30.03,29.88,8,1,8,0.00
2014-6-5,87,76,70,76,71,67,92,85,65,29.97,29.88,10,1,10,2.70
2014-6-6,89,82,73,78,75,70,93,80,64,30.00,29.88,10,1,10,2.70
2014-6-7,90,84,78,81,78,76,95,84,70,30.03,29.88,13,1,13,2.70
2014-6-8,92,84,78,80,77,75,94,79,60,29.97,29.88,18,1,18,2.70
2014-6-9,89,82,78,78,76,74,89,83,65,29.94,29.85,12,2,12,2.70
2014-6-10,88,80,71,80,74,69,93,83,64,29.97,29.88,13,2,13,2.70
2014-6-11,85,77,71,78,72,69,96,85,66,29.91,29.82,13,2,13,2.70
2014-6-12,90,80,73,76,71,65,92,75,47,29.97,29.85,8,1,8,1.50
2014-6-13,82,76,72,74,72,69,93,87,66,30.03,29.88,7,1,7,1.75
2014-6-14,88,79,69,75,71,66,92,78,57,30.06,29.94,7,1,7,0.00
2014-6-15,89,81,71,77,72,68,91,77,58,30.15,29.97,10,1,10,1.75
2014-6-16,91,82,73,78,74,70,93,76,60,30.21,30.06,8,1,8,0.00
2014-6-17,92,80,72,79,72,65,93,78,41,30.18,30.06,7,1,7,1.75
2014-6-18,91,82,74,78,74,70,90,77,58,30.15,30.06,6,1,6,0.00
2014-6-19,91,79,72,79,73,70,92,82,56,30.15,30.06,6,1,6,1.79
2014-6-20,91,80,72,78,74,70,94,82,55,30.12,30.00,10,1,10,0.17
2014-6-21,92,83,73,78,74,71,93,77,59,30.03,29.88,9,1,9,0.00
2014-6-22,90,80,74,79,74,70,91,83,64,29.97,29.85,10,1,10,0.24
2014-6-23,84,78,72,78,73,70,93,86,75,30.06,29.88,7,1,7,0.05
2014-6-24,89,81,74,81,75,70,96,83,65,30.12,30.00,10,1,10,2.25
2014-6-25,90,81,73,77,73,70,90,78,57,30.15,30.03,11,1,11,0.00
2014-6-26,88,78,74,76,73,69,95,84,64,30.15,30.00,8,0,8,0.58
2014-6-27,90,80,73,81,75,70,96,84,60,30.15,30.00,10,1,10,0.24
2014-6-28,90,81,74,81,76,71,94,85,69,30.18,30.06,8,1,8,0.00
2014-6-29,91,84,34,82,76,0,94,79,62,30.21,30.06,12,1,12,0.00
2014-6-30,90,84,78,82,78,75,93,82,68,30.12,29.97,6,1,9,0.00
2014-7-1,92,85,77,80,77,68,92,78,46,30.03,29.91,7,1,7,0.00
2014-7-2,94,86,78,80,76,70,91,73,52,30.03,29.94,6,1,6,0.00
2014-7-3,88,82,74,76,71,68,88,72,53,30.09,29.97,10,1,10,3.07
2014-7-4,86,79,71,72,65,0,89,64,40,30.18,30.06,9,2,9,0.00
2014-7-5,89,79,34,69,65,28,84,65,44,30.18,30.06,6,1,9,3.07
2014-7-6,91,81,72,73,69,65,87,68,44,30.09,29.97,8,1,8,0.00
2014-7-7,91,82,72,74,69,64,85,66,41,30.09,29.97,13,1,13,0.00
2014-7-8,90,84,74,77,73,68,85,71,54,30.15,30.00,11,1,11,0.00
2014-7-9,89,81,76,80,74,71,88,80,69,30.09,30.03,6,1,7,0.00
2014-7-10,90,77,74,77,72,69,91,86,59,30.15,30.03,13,0,13,3.57
2014-7-11,90,81,73,79,74,71,92,79,60,30.15,30.06,7,1,7,0.00
2014-7-12,92,85,73,78,75,70,90,73,54,30.15,30.06,12,1,12,0.00
2014-7-13,88,81,73,80,75,70,92,83,72,30.15,30.03,115,1,115,0.13
2014-7-14,88,82,75,81,76,72,90,82,70,30.09,29.97,8,1,8,0.04
2014-7-15,87,82,78,80,77,75,91,85,75,30.03,29.91,9,1,9,0.12
2014-7-19,83,80,77,79,76,74,93,90,86,30.00,29.94,4,0,4,6.94
2014-7-20,89,80,76,80,76,74,94,88,67,30.06,29.94,9,1,9,0.57
2014-7-21,88,80,75,79,75,71,94,85,64,30.06,29.94,7,1,7,0.12
2014-7-22,87,79,73,79,75,70,93,87,69,30.06,29.97,10,1,10,7.77
2014-7-23,86,78,70,78,73,68,94,86,64,30.09,29.94,6,1,6,0.12
2014-7-24,88,80,72,79,74,70,92,83,67,30.06,29.94,8,1,8,0.12
2014-7-25,90,81,75,80,76,72,92,85,66,30.06,29.94,9,1,9,0.54
2014-7-26,91,84,77,81,78,74,92,83,68,30.09,29.97,10,1,10,0.12
2014-7-27,92,86,79,82,78,76,91,80,63,30.09,30.00,10,1,10,0.12
2014-7-28,95,86,79,80,77,74,91,77,52,30.06,29.91,8,1,8,8.64
2014-7-29,87,81,74,76,69,62,90,69,44,30.06,29.94,10,1,10,8.64
2014-7-30,84,76,70,67,62,55,83,63,38,30.09,29.97,8,2,8,8.64
2014-7-31,86,77,66,69,64,59,88,66,40,30.06,29.94,8,1,10,0.00
2014-8-1,84,78,72,75,70,66,91,78,59,30.06,29.94,4,0,4,0.12
2014-8-2,91,82,74,78,72,67,91,75,49,30.06,29.94,6,1,6,0.12
2014-8-3,88,81,76,78,75,72,90,83,61,30.06,29.94,7,1,7,0.12
2014-8-4,89,80,75,79,74,69,92,82,61,30.03,29.94,11,1,11,0.21
2014-8-5,91,82,73,78,74,70,92,78,52,30.09,29.94,9,1,9,0.00
2014-8-6,93,83,34,80,75,0,91,80,58,30.09,29.94,9,1,9,0.00
2014-8-7,92,84,75,81,77,72,91,81,63,30.06,29.94,10,1,10,8.85
2014-8-8,92,83,77,82,77,74,91,82,66,30.03,29.94,11,1,11,8.85
2014-8-9,93,83,74,80,76,70,92,81,62,30.06,29.94,13,2,13,9.42
2014-8-10,88,81,74,78,75,71,91,82,66,30.09,29.94,6,1,6,9.47
2014-8-11,80,77,75,74,73,72,90,88,83,30.00,29.94,3,0,3,0.00
2014-8-12,85,78,76,76,74,72,91,88,68,30.03,29.91,12,1,12,9.96
2014-8-13,89,79,73,77,73,67,92,82,58,30.00,29.91,6,1,6,0.00
2014-8-14,90,80,71,74,68,63,88,68,48,30.03,29.94,6,1,6,0.00
2014-8-15,91,78,70,73,69,64,90,78,43,30.06,29.94,7,1,7,9.96
2014-8-16,90,80,71,78,74,68,90,82,63,30.06,29.94,9,1,9,13.69
2014-8-17,89,81,77,81,77,74,91,86,74,30.09,30.00,12,1,12,0.66
2014-8-18,90,82,76,82,76,72,91,84,69,30.03,29.94,10,1,10,0.62
2014-8-19,92,84,74,81,77,66,90,79,64,30.06,29.91,15,2,15,0.78
2014-8-20,90,82,73,80,76,70,91,80,65,30.12,29.94,8,1,8,0.62
2014-8-21,93,85,76,81,77,72,91,79,54,30.18,30.06,7,1,7,0.62
2014-8-22,94,85,77,79,76,70,91,76,47,30.15,30.00,6,1,8,11.62
2014-8-23,94,86,77,80,76,73,90,74,52,30.06,29.88,6,1,7,0.62
2014-8-24,94,86,77,80,76,71,89,73,49,29.94,29.82,9,2,9,0.62
2014-8-25,89,83,78,76,73,68,88,71,51,29.97,29.88,8,3,10,0.62
2014-8-26,90,82,73,76,70,64,85,67,48,30.03,29.94,9,2,9,0.62
2014-8-27,91,82,73,76,73,67,89,76,48,30.06,29.94,115,1,115,0.62
2014-8-28,90,81,73,77,73,66,91,78,48,30.06,29.94,7,1,7,0.62
2014-8-29,91,84,74,79,75,70,91,78,56,30.06,29.94,10,2,10,0.00
2014-8-30,91,83,76,82,76,72,91,81,60,30.12,30.03,13,1,13,0.17
2014-8-31,91,84,76,83,77,73,91,81,60,30.15,30.06,9,1,10,0.00
2014-9-1,91,83,76,82,76,72,91,81,64,30.12,30.00,9,1,9,0.00
2014-9-2,91,83,77,82,76,68,91,81,59,30.09,29.97,14,1,14,11.87
2014-9-3,88,81,74,78,74,70,91,78,56,30.06,29.97,8,1,10,11.87
2014-9-4,90,80,34,78,74,0,91,85,64,30.12,30.00,10,1,12,12.29
2014-9-5,88,80,73,78,74,70,91,84,67,30.18,30.00,8,1,8,12.29
2014-9-6,90,82,74,79,74,71,91,80,61,30.09,29.94,7,1,7,0.00
2014-9-7,90,82,75,79,76,72,90,82,64,30.00,29.88,10,1,10,0.00
2014-9-8,77,76,74,74,73,71,92,91,90,29.97,29.94,3,0,3,12.29
2014-9-10,89,82,74,80,77,71,91,85,69,30.03,29.91,8,1,8,12.46
2014-9-11,89,82,75,81,76,72,91,82,68,30.03,29.94,10,1,10,12.29
2014-9-12,90,82,75,81,76,72,91,82,62,30.03,29.94,14,1,14,12.29
2014-9-13,87,79,75,78,74,72,91,87,68,30.09,29.97,8,1,8,12.29
2014-9-14,88,80,72,77,73,69,89,81,66,30.15,30.03,12,2,12,16.10
2014-9-15,87,81,75,79,76,72,91,85,71,30.15,30.06,7,1,7,16.35
2014-9-16,87,79,75,79,75,72,91,88,73,30.09,29.97,10,1,10,12.99
2014-9-17,88,80,73,77,74,70,92,81,65,29.97,29.88,10,1,10,0.00
2014-9-18,87,79,74,76,73,62,90,83,55,29.97,29.88,15,1,15,0.09
2014-9-19,85,78,73,74,71,68,91,81,58,30.03,29.88,8,1,8,0.04
2014-9-20,81,78,72,71,69,66,84,73,63,30.03,29.94,11,2,11,0.00
2014-9-21,85,78,70,72,69,66,88,75,56,30.06,29.94,5,1,6,0.39
2014-9-22,86,77,69,74,68,60,89,76,57,30.06,29.94,10,1,10,0.00
2014-9-23,81,72,61,64,58,54,79,64,40,30.12,30.03,12,2,12,0.00
2014-9-24,81,72,65,67,62,58,90,73,48,30.21,30.09,13,2,229,0.00
2014-9-25,80,71,64,68,63,60,89,75,56,30.21,30.06,10,3,10,0.00
2014-9-26,79,72,64,66,63,60,92,76,53,30.12,30.00,11,2,11,0.00
2014-9-27,80,73,66,71,68,61,94,83,72,30.06,29.97,12,3,12,0.00
2014-9-28,80,76,72,74,72,69,91,87,81,30.03,29.94,9,3,9,0.00
2014-9-29,74,74,74,71,71,71,91,91,91,29.94,29.88,6,2,6,0.00
2014-9-30,80,75,70,72,70,68,93,86,74,29.94,29.82,7,1,7,0.00
2014-10-1,83,75,67,73,69,63,91,83,68,30.00,29.88,8,1,8,0.00
2014-10-2,84,78,72,79,74,69,92,88,81,30.03,29.94,5,1,6,0.00
2014-10-3,80,76,71,76,72,66,91,86,76,30.06,29.88,8,1,8,0.58
2014-10-4,71,65,56,66,51,41,86,64,37,30.12,30.00,11,2,11,14.09
2014-10-5,72,62,49,54,48,42,80,62,43,30.12,30.00,115,1,115,0.00
2014-10-6,78,68,58,66,59,52,91,73,53,30.09,29.94,12,1,12,0.00
2014-10-7,83,72,62,74,66,59,93,84,63,30.12,29.97,8,1,10,0.00
2014-10-8,86,75,65,75,69,63,93,82,51,30.18,30.06,8,1,8,0.00
2014-10-9,82,75,66,76,70,64,93,86,69,30.12,30.00,11,1,11,0.00
2014-10-10,84,77,69,76,71,67,92,82,68,30.09,30.00,7,1,7,0.00
2014-10-11,84,76,69,76,70,66,92,83,64,30.09,29.94,9,1,9,0.00
2014-10-12,83,76,68,75,70,65,91,82,67,30.06,29.94,11,1,11,0.00
2014-10-13,84,76,72,78,72,68,92,88,76,30.00,29.79,20,1,20,14.67
2014-10-14,75,70,62,72,60,52,92,74,50,30.00,29.74,10,1,10,0.71
2014-10-15,74,64,56,57,50,45,83,63,36,30.03,29.91,9,1,9,0.00
2014-10-16,75,61,52,57,50,45,81,69,38,30.06,29.94,7,0,7,0.00
2014-10-17,77,65,52,59,54,46,83,70,48,30.06,29.94,7,1,7,0.00
2014-10-18,80,69,57,71,61,52,89,75,58,30.03,29.94,9,1,9,0.00
2014-10-19,73,64,57,54,51,47,79,62,42,30.15,30.00,12,2,12,0.00
2014-10-20,75,63,51,58,52,45,83,68,44,30.09,29.94,6,1,6,0.00
2014-10-21,76,64,52,57,53,46,84,69,44,30.06,29.94,8,1,8,15.38
2014-10-22,75,64,54,58,51,48,85,66,43,30.09,30.00,10,2,10,0.00
2014-10-23,71,60,49,54,48,41,79,64,42,30.15,30.00,9,1,9,0.00
2014-10-24,72,62,52,55,50,47,83,67,43,30.09,30.00,8,1,8,0.00
2014-10-25,75,56,48,58,47,41,82,73,45,30.15,30.03,10,1,228,15.38
2014-10-26,77,67,56,66,59,50,86,78,62,30.09,29.94,6,1,6,15.38
2014-10-27,78,68,59,68,63,56,90,83,68,30.09,30.00,11,1,11,15.38
2014-10-28,78,70,60,68,63,57,91,79,58,30.15,30.06,6,1,6,15.38
2014-10-29,80,72,66,71,66,61,91,82,70,30.09,29.97,10,2,10,15.38
2014-10-30,69,63,53,61,50,43,87,65,39,30.12,30.00,12,2,13,15.38
2014-10-31,71,60,46,52,45,37,79,60,43,30.15,29.88,14,2,14,15.38
2014-11-1,58,51,43,37,29,24,58,43,31,30.39,30.12,12,3,14,15.38
2014-11-2,61,49,37,38,34,28,71,57,38,30.44,30.30,8,1,10,0.00
2014-11-3,67,54,42,51,41,33,76,62,41,30.44,30.30,10,1,10,15.38
2014-11-4,71,54,48,61,47,41,90,76,67,30.36,30.18,6,0,7,15.38
2014-11-5,74,67,61,68,62,49,93,86,42,30.27,30.12,10,1,10,15.38
2014-11-6,75,67,59,69,62,43,93,84,55,30.18,30.06,8,1,8,15.38
2014-11-7,61,55,49,43,40,37,74,58,45,30.18,30.03,14,2,14,16.69
2014-11-8,60,52,45,47,42,38,82,71,50,30.09,29.94,6,1,7,15.80
2014-11-9,65,55,47,49,45,41,85,72,50,30.06,29.94,7,1,7,15.38
2014-11-10,67,55,42,53,46,35,83,73,57,30.09,29.94,6,1,6,15.38
2014-11-11,71,60,49,63,55,44,93,82,71,30.06,29.94,10,1,10,15.38
2014-11-12,63,59,34,61,55,0,94,85,76,30.15,30.00,10,1,10,0.00
2014-11-13,51,45,41,45,36,25,84,72,52,30.27,30.12,11,4,11,0.00
2014-11-14,48,41,34,26,23,19,54,48,39,30.36,30.21,10,3,13,0.38
2014-11-15,69,45,34,37,28,21,72,53,37,30.36,30.18,8,1,8,0.00
2014-11-16,71,60,44,67,54,36,92,81,72,30.24,29.82,13,2,13,0.00
2014-11-17,72,53,39,69,44,22,93,72,50,30.33,29.74,16,4,16,0.20
2014-11-18,46,38,32,23,21,18,62,50,36,30.50,30.30,9,2,13,0.00
2014-11-19,52,39,27,29,24,16,69,56,39,30.50,30.30,6,1,6,0.00
2014-11-20,62,44,34,46,34,26,78,68,52,30.36,30.18,8,0,8,0.00
2014-11-21,67,52,40,51,42,33,87,68,45,30.39,30.24,15,1,15,0.00
2014-11-22,68,58,46,60,50,39,94,76,60,30.33,29.91,13,3,13,0.00
2014-11-23,73,66,62,70,64,59,95,92,87,29.97,29.62,18,3,18,0.21
2014-11-24,73,67,59,67,59,42,93,76,53,30.06,29.74,10,2,10,0.00
2014-11-25,61,56,51,41,36,30,53,47,41,30.15,30.03,12,3,12,0.00
2014-11-26,59,50,39,36,31,26,66,48,39,30.27,30.12,10,2,10,0.00
2014-11-28,60,42,37,35,29,26,69,58,42,30.45,29.92,10,1,18,16.59
2014-11-29,66,53,38,54,45,30,86,74,64,30.30,30.18,5,1,10,0.00
2014-11-30,72,60,48,63,54,43,96,81,65,30.30,30.18,6,1,13,0.00
2014-12-1,71,63,56,64,58,51,97,84,63,30.39,30.27,4,1,8,0.00
2014-12-2,72,60,49,60,53,44,94,79,59,30.33,30.18,6,1,8,0.00
2014-12-3,73,63,53,65,58,49,93,84,69,30.27,30.15,5,1,8,0.00
2014-12-4,74,64,56,66,60,52,96,87,76,30.30,30.18,5,1,9,0.00
2014-12-5,75,66,59,70,63,57,97,90,74,30.27,30.18,5,1,11,0.00
2014-12-6,74,67,58,70,63,48,97,88,69,30.30,30.12,8,2,13,0.00
2014-12-7,61,55,48,48,44,42,81,67,52,30.33,30.18,8,3,15,0.00
2014-12-8,64,55,46,50,46,41,83,72,52,30.27,30.18,7,2,11,0.00
2014-12-9,62,50,39,47,39,34,91,68,43,30.27,30.12,7,1,12,0.00
2014-12-10,54,46,37,37,33,30,75,61,47,30.30,30.18,7,2,9,0.00
2014-12-11,56,45,35,38,34,29,82,68,48,30.33,30.21,6,1,8,0.00
2014-12-12,60,49,39,40,37,34,82,64,43,30.39,30.27,6,1,10,0.00
2014-12-13,62,51,40,43,39,35,84,66,48,30.30,30.18,7,1,10,0.00
2014-12-14,62,50,40,47,42,34,86,74,58,30.21,30.06,6,1,10,0.00
2014-12-15,67,56,41,64,51,36,93,82,70,30.12,30.00,6,2,13,0.00
2014-12-16,66,60,48,64,48,37,97,66,43,30.27,30.03,6,2,12,0.00
2014-12-17,57,48,37,43,38,31,79,70,51,30.30,30.18,5,1,9,0.13
2014-12-18,61,52,41,48,43,36,86,72,56,30.24,30.06,4,1,7,0.00